Location: Bottenau
(48.5138°N, 8.0462°E)
Time: 16:21:30
(UTC+00:00)

ATLAS 5 CENTAUR R/B - Pass Details

Date: 18 April 2021
Orbit: 516 x 1141 km, 63.3° (Epoch: 02 May)

Event Time Altitude Azimuth Distance (km) Brightness Sun altitude
Rises 19:17:19 0° 255° (WSW) 2,703 5.6 -9.0°
Reaches altitude 10° 19:19:38 10° 268° (W) 1,866 5.0 -9.3°
Maximum altitude 19:23:17 29° 329° (NNW) 1,147 3.7 -9.9°
Drops below altitude 10° 19:27:25 10° 29° (NNE) 2,128 4.3 -10.5°
Sets 19:30:14 0° 41° (NE) 3,162 5.1 -10.9°
